Other Surface Observations
Issued by NWS Tucson, AZ

Home | Current Version | Previous Version | Text Only | Print | Product List | Glossary On
Versions: 1 2 3 4 5 6 7 8 9 10 11 12 13 14 15 16 17 18 19 20 21 22 23 24 25 26 27 28 29 30 31 32 33 34 35 36 37 38 39 40 41 42 43 44 45 46 47 48 49 50
422
SXUS55 KTWC 082315
OSOTWC

WEATHER ROUNDUP FOR SOUTHEAST ARIZONA
NATIONAL WEATHER SERVICE TUCSON AZ
415 PM MST MON FEB 08 2016

AZZ504>506-514-090015-
LOCATION       SKY/WX    TMP DP  RH WIND       PRES   REMARKS
TUCSON         SUNNY     81  15   8 E10       30.13F
DAVIS-MONTHAN  SUNNY     80  17   9 NE6       30.12S
CHILDRENS PARK N/A      N/A N/A  10 SE8               PIMA CO DEQ
ALVERNON/22ND  N/A       82 N/A N/A E6                PIMA CO DEQ
CHERRY/GLENN   N/A       81 N/A N/A E8                PIMA CO DEQ
TANGERINE      N/A       81 N/A N/A SW2               PIMA CO DEQ
CONTL RANCH    N/A       82  20  10 SE5               PIMA CO DEQ
GRANT/1ST      N/A       81  19  10 W3                PIMA CO DEQ
CRAYCROFT/22ND N/A       81  19  10 N/A               PIMA CO DEQ
GOLFLINKS/KOLB N/A       79  18  10 E4                PIMA CO DEQ
AJO/12TH       N/A       80  16   9 SE6               PIMA CO DEQ
SAGUARO EAST   N/A       27 -19  11 SE5               PIMA CO DEQ
FAIRGROUNDS    N/A       77 N/A N/A E17               PIMA CO DEQ
SAGUARO        N/A       81  19  10 SE12G20           *SABINO CYN
SAN CARLOS     N/A       74  23  15 S7G10             *SAN CARLOS
GREEN VALLEY   N/A       80  16   9 E11               PIMA CO DEQ
HORSE CAMP CYN N/A       71  19  14 E14G25            *ARAVAIPA CYN
RINCON MTNS    N/A       52   6  15 E14G22            *NR MANNING CAMP
$$

AZZ509>511-090015-
LOCATION       SKY/WX    TMP DP  RH WIND       PRES   REMARKS
SAFFORD        SUNNY     72  20  14 SE6       30.21F
STRAY HORSE    N/A       62  15  16 W5G12             *
TRAIL CABIN    N/A       67  13  12 NE3               *N OF GRANVILLE
BLACK HILLS    N/A       71  21  15 SE6G12            *N OF FT THOMAS
DRY LAKE       N/A       64  15  15 N3                *NATANES MTNS
NOON CREEK     N/A       68  20  16 E3                *PINALENO MTNS
COLUMBINE      N/A       60   1   9 N2G11             *PINALENO MTNS
GUTHRIE        N/A       61  18  19 S5G11             *SW OF GUTHRIE
$$

AZZ502-503-513-090015-
LOCATION       SKY/WX    TMP DP  RH WIND       PRES   REMARKS
NOGALES        SUNNY     78  14   9 MISG      30.16S
SELLS          N/A       82  20  10 NE15G21           *
SASABE         N/A       80  13   8 NE9G16            *ALTAR VLY
HOPKINS        N/A       59  13  16 E18G30            *SANTA RITA MTNS
CARR CYN       N/A       69  18  14 E3                *W OF HEREFORD
$$

AZZ507-508-512-090015-
LOCATION       SKY/WX    TMP DP  RH WIND       PRES   REMARKS
SIERRA VISTA   SUNNY     71  12  10 E8        30.23F
DOUGLAS        SUNNY     72  17  12 E16       30.21F
EMPIRE MTNS    NOT AVBL
MULESHOE RANCH N/A       69  16  13 E10G19            *PRESERVE
HEADQUARTERS   N/A       64  17  16 E11G21            *CHIRICAHUA MTNS
$$

.............................NOTES.............................
THIS IS AN AUTOMATED COLLECTIVE WITH MINIMAL QUALITY CONTROL.
PIMA CO DEQ SITES HAVE NONSTANDARD WIND SENSOR HEIGHTS.
PIMA CO DEQ SITES DO NOT REPORT WIND GUSTS.
* INDICATES WIND SENSORS LOCATED AT 20 FEET INSTEAD OF 33 FEET.
..............................KEY..............................
SKY/WX - SKY CONDITION/WEATHER
TMP    - TEMPERATURE IN FAHRENHEIT
DP     - DEWPOINT IN FAHRENHEIT
RH     - RELATIVE HUMIDITY IN PERCENT
WIND   - DIRECTION AND SPEED IN MILES PER HOUR (MPH)
VRB    - VARIABLE WIND DIRECTION
PRES   - MEAN SEA LEVEL PRESSURE IN INCHES OF MERCURY
         F - FALLING PRESSURE   R - RISING PRESSURE
         S - STEADY PRESSURE
VSB    - VISIBILITY IN MILES
HX     - HEAT INDEX IN FAHRENHEIT
WCI    - WIND CHILL INDEX IN FAHRENHEIT
N/A    - NOT AVAILABLE
AFB    - AIR FORCE BASE
         DAVIS-MONTHAN IS DAVIS-MONTHAN AIR FORCE BASE
CYN    - CANYON
MTNS   - MOUNTAINS
NCA    - NATIONAL CONSERVATION AREA
NR     - NEAR
VLY    - VALLEY
CONTL  - CONTINENTAL
PIMA CO DEQ - PIMA COUNTY DEPT OF ENVIRONMENTAL QUALITY



USA.gov is the U.S. government's official web portal to all federal, state and local government web resources and services.